Location: Newark
(14.9306°N, 3.4333°E)
Time: 09:56:58
(UTC+00:00)

First-Move - Pass Details

Date: 15 December 2019
Orbit: 576 x 669 km, 97.6° (Epoch: 19 January)

Event Time Altitude Azimuth Distance (km) Brightness Sun altitude
Rises 04:47:39 0° 43° (NE) 2,785 ? -17.9°
Reaches altitude 10° 04:51:03 10° 74° (ENE) 1,880 ? -17.1°
Maximum altitude 04:52:43 12° 98° (E) 1,737 ? -16.7°
Drops below altitude 10° 04:54:22 10° 122° (ESE) 1,880 ? -16.4°
Sets 04:57:45 0° 153° (SSE) 2,783 ? -15.6°
